Location: Saratoga Springs
(43.0831°N, 73.7850°W)
Time: 11:04:12
(UTC-04:00)

SR - Pass Details

Date: 20 April 2024
Orbit: 579 x 860 km, 66.7° (Epoch: 20 May)

Event Time Altitude Azimuth Distance (km) Brightness Sun altitude
Exits shadow 04:11:03 17° 288° (WNW) 1,874 ? -19.1°
Maximum altitude 04:13:01 21° 316° (NW) 1,672 ? -18.9°
Drops below altitude 10° 04:16:51 10° 5° (N) 2,230 ? -18.3°
Sets 04:19:42 0° 22° (NNE) 3,097 ? -17.9°
